Regional Weather Roundup
Issued by NWS Upton, NY

Current Version | Previous Version | Text Only | Print | Product List | Glossary On
Versions: 1 2 3 4 5 6 7 8 9 10 11 12 13 14 15 16 17 18 19 20 21 22 23 24 25 26 27 28 29 30 31 32 33 34 35 36 37 38 39 40 41 42 43 44 45 46 47 48 49 50
000
ASUS41 KOKX 160305
RWROKX

REGIONAL WEATHER ROUNDUP
NATIONAL WEATHER SERVICE NEW YORK NY
1100 PM EDT MON SEP 15 2014

NOTE: "FAIR" INDICATES FEW OR NO CLOUDS BELOW 12,000 FEET WITH NO
SIGNIFICANT WEATHER AND/OR OBSTRUCTIONS TO VISIBILITY.

NYZ071-072-176-178-NJZ106-104-160400-
NEW YORK CITY METRO AREA


CITY           SKY/WX    TMP DP  RH WIND       PRES   REMARKS
CENTRAL PARK   PTCLDY    63  51  65 VRB3      30.13R
LAGUARDIA APRT MOCLDY    65  51  60 SW7       30.09S
KENNEDY INTL   MOCLDY    64  53  67 SW7       30.11S
NEWARK/LIBERTY MOCLDY    62  52  69 S8        30.10R
BRNX BOT. GARD   N/A     63  50  63 SW2       30.12S
TETERBORO      PTCLDY    62  51  67 S5        30.09R
$$

NYZ177-179-078>081-160400-
LONG ISLAND NEW YORK

CITY           SKY/WX    TMP DP  RH WIND       PRES   REMARKS
FARMINGDALE    MOCLDY    62  50  64 CALM      30.10S
ISLIP          MOCLDY    57  49  74 CALM      30.08F
SHIRLEY        MOCLDY    53  48  83 CALM      30.11S
WESTHAMPTON    PTCLDY    47  43  86 CALM      30.12F
MONTAUK POINT    N/A     59  52  77 CALM      30.12F
$$

NYZ052-065-067-160400-
HUDSON VALLEY

CITY           SKY/WX    TMP DP  RH WIND       PRES   REMARKS
WHITE PLAINS   PTCLDY    56  50  80 CALM      30.10R
NEWBURGH       CLEAR     54  50  87 CALM      30.10S
MONTGOMERY     PTCLDY    50  48  93 CALM      30.09S
POUGHKEEPSIE   PTCLDY    53  50  89 E3        30.08F
ALBANY         CLOUDY    55  46  71 CALM      30.10R
$$

NJZ001-105-106-008-010-013-015-019>022-104-160400-
NEW JERSEY

CITY           SKY/WX    TMP DP  RH WIND       PRES   REMARKS
NEWARK/LIBERTY MOCLDY    62  52  69 S8        30.10R
TETERBORO      PTCLDY    62  51  67 S5        30.09R
CALDWELL       PTCLDY    57  49  74 CALM      30.11R
MORRISTOWN     PTCLDY    52  48  87 CALM      30.10S
SOMERVILLE     MOCLDY    52  48  86 NW3       30.09R
LINDEN         FAIR      65  54  66 CALM      30.11F
SUSSEX         PTCLDY    51  48  89 CALM      30.10S FOG
ANDOVER          N/A     50  49  96 CALM      30.10S
TRENTON        MOCLDY    58  52  80 S3        30.10R
MILLVILLE      PTCLDY    57  53  86 CALM      30.09F
ATLANTIC CITY  PTCLDY    55  52  89 CALM      30.10F
WRIGHTSTOWN    PTCLDY    57  53  88 VRB7      30.07F
TOMS RIVER     PTCLDY    52  48  87 CALM      30.10F
BELMAR         PTCLDY    57  50  77 SW5       30.09F
$$

PAZ047>061-062-071-160400-
EASTERN PENNSYLVANIA

CITY           SKY/WX    TMP DP  RH WIND       PRES   REMARKS
PHILADELPHIA   MOCLDY    61  52  72 CALM      30.09S
ALLENTOWN      PTCLDY    55  50  83 CALM      30.09F
SCRANTON       PTCLDY    55  47  74 E6        30.07F
$$

CTZ002-004>006-009-010-012-RIZ004-006-007-MAZ004-011-015-160400-
SOUTHERN NEW ENGLAND
 IN CT

CITY           SKY/WX    TMP DP  RH WIND       PRES   REMARKS
BRADLEY INTL   MOCLDY    53  47  79 CALM      30.10R
HARTFORD       MOCLDY    55  49  80 CALM      30.10S
DANBURY        PTCLDY    52  48  86 CALM      30.12S
WTRBRY/OXFORD  MOCLDY    50  43  76 CALM      30.12S
BRIDGEPORT     MOCLDY    64  50  60 SW7       30.10S
MERIDEN        MOCLDY    50  47  89 CALM      30.11S
NEW HAVEN      MOCLDY    57  49  74 CALM      30.11R
CHESTER        FAIR      54  48  82 CALM      30.11F
GROTON         PTCLDY    52  50  93 CALM      30.10F
WILLIMANTIC    PTCLDY    50  48  93 N5        30.12F

 IN RI

CITY           SKY/WX    TMP DP  RH WIND       PRES   REMARKS
PROVIDENCE     PTCLDY    55  48  77 CALM      30.11F
BLOCK ISLAND   PTCLDY    55  46  71 S5        30.10F
WESTERLY       PTCLDY    52  49  89 CALM      30.11F

 IN MA

CITY           SKY/WX    TMP DP  RH WIND       PRES   REMARKS
BOSTON         PTCLDY    58  48  69 S8        30.11F
WORCESTER      PTCLDY    50  45  83 S3        30.11F
WESTFIELD      PTCLDY    51  48  89 CALM      30.10F
PROVINCETOWN   CLOUDY    57  46  67 SE5       30.12F
NANTUCKET      CLOUDY    59  50  72 SE8       30.12F
$$

ANZ330-335-338-340-345-350-353-355-160400-
COASTAL MARINE OBSERVATIONS


STATION/POSITION TIME  SKY/WX   TEMP    WIND        PRES    VSBY  WAVE
                                AIR SEA DIR/SP/G                  HT/PER
                 (UTC)          (F)     (DEG/KT/KT) (MB)    (MI)  (FT/S)
NY HARB ENTRANCE NOT AVBL
4S FIRE IS       NOT AVBL
23SW MTP         0300                                 N/A           1/12
HUDSON CANYON    0300            65 73   80/  4/  6 1019.2          2/13
EXECUTION ROCKS  0300            65 71  210/  8/ 10   N/A
WESTERN LI SOUND 0300            65     180/  8/  8   N/A           0
CENTRAL LI SOUND 0200            65 71  200/ 10/ 12   N/A           1
EASTERN LI SOUND 0200            65 68  210/  8/ 10   N/A
ROBBINS REEF     0200            63                   N/A
$$


>>>>>>>>>>>>>>>>>>>>>>>>>>>> KEY <<<<<<<<<<<<<<<<<<<<<<<<<<<
>                                                          <
>     SKY/WX - SKY CONDITION/PRESENT WEATHER               <
>     TMP    - TEMPERATURE IN FAHRENHEIT                   <
>     DP     - DEWPOINT IN FAHRENHEIT                      <
>     RH     - RELATIVE HUMIDITY IN PERCENT                <
>     WIND   - DIRECTION AND SPEED IN MPH                  <
>     PRES   - MEAN SEA LEVEL PRESSURE IN INCHES OF HG     <
>     WCI    - WIND CHILL INDEX                            <
>     VSB    - VISIBILITY IN MILES                         <
>     HX     - HEAT INDEX                                  <
>     TC     - TEMPERATURE IN CELSIUS                      <
>     VRB    - VARIABLE WIND DIRECTION                     <
>                                                          <
>>>>>>>>>>>>>>>>>>>>>>>>>>>> KEY <<<<<<<<<<<<<<<<<<<<<<<<<<<




USA.gov is the U.S. government's official web portal to all federal, state and local government web resources and services.